Simultaneous Nadir Overpasses (SNOs) Predictions

Prediction of SNOs between AQUA and NPP Satellite Orbit:

Table of predicted SNOs for the next 14.0 days since TLE Epoch: 2/1/2025
Index Date (AQUA) Time (AQUA) Lat,Lon (AQUA) SZA (AQUA ) Date (NPP) Time (NPP) Lat,Lon (NPP) SZA (NPP ) Distance(km) Time Diff (sec)
1 02/03/2025 14:27:59 81.29,-106.90 103.66 02/03/2025 14:27:58 81.30,-107.04 103.68 2.44 1
2 02/06/2025 00:49:32 -81.29, -82.27 77.07 02/06/2025 00:49:38 -81.30, -82.20 77.08 1.31 6
3 02/08/2025 10:21:43 -81.30, 135.01 77.86 02/08/2025 10:20:33 -81.30, 135.13 77.83 2.04 70
4 02/08/2025 11:11:02 81.30, -57.50 102.16 02/08/2025 11:11:17 81.30, -57.33 102.13 2.89 15
5 02/10/2025 20:43:12 81.29, 159.43 101.40 02/10/2025 20:42:13 81.30, 159.53 101.42 1.86 59
6 02/10/2025 21:32:31 -81.30, -32.67 78.65 02/10/2025 21:32:57 -81.30, -32.65 78.66 0.47 26
7 02/13/2025 07:04:39 -81.30,-175.64 79.45 02/13/2025 07:03:52 -81.30,-175.48 79.44 2.64 47



Historial Predications of SNOs between AQUA and NPP
